SMX1404 KSUU-KRND

Flight info

Callsign SMX1404
Flight time 2h 53m
Altitude 37000
Route FRA FUZZY J86 PGS MOSBI INW J108 INK J15 JCT J2 SAT
Aircraft B738/L-SDE2E3FGHIJ7RWXY/LB1

Departure

Time 2026-04-26 12:17
Airport Travis Air Force Base (KSUU)

Arrival

Time 2026-04-26 15:10
Airport Randolph Air Force Base (KRND)
Time Latitude Longitude Altitude Speed Heading
2026-04-26 11:54 38.26449 -121.93279 43 ft 0 kts 226°
2026-04-26 12:05 38.26460 -121.93265 41 ft 2 kts 226°
2026-04-26 12:05 38.26471 -121.93250 42 ft 2 kts 226°
2026-04-26 12:06 38.26482 -121.93235 44 ft 2 kts 226°
2026-04-26 12:06 38.26488 -121.93227 44 ft 0 kts 226°
2026-04-26 12:11 38.26474 -121.93235 42 ft 6 kts 192°
2026-04-26 12:11 38.26444 -121.93188 42 ft 8 kts 94°
2026-04-26 12:11 38.26443 -121.93122 42 ft 7 kts 105°
2026-04-26 12:11 38.26438 -121.93061 40 ft 0 kts 93°
2026-04-26 12:13 38.26437 -121.93052 42 ft 3 kts 93°
2026-04-26 12:13 38.26438 -121.93032 41 ft 0 kts 87°
2026-04-26 12:13 38.26438 -121.93029 41 ft 1 kts 87°
2026-04-26 12:13 38.26438 -121.93027 41 ft 0 kts 87°
2026-04-26 12:14 38.26438 -121.93026 41 ft 0 kts 87°
2026-04-26 12:14 38.26438 -121.93010 41 ft 3 kts 96°
2026-04-26 12:14 38.26431 -121.92984 41 ft 3 kts 113°
2026-04-26 12:15 38.26419 -121.92962 40 ft 3 kts 128°
2026-04-26 12:15 38.26406 -121.92941 42 ft 3 kts 130°
2026-04-26 12:15 38.26392 -121.92922 42 ft 3 kts 136°
2026-04-26 12:15 38.26378 -121.92906 39 ft 3 kts 140°
2026-04-26 12:16 38.26360 -121.92899 42 ft 3 kts 175°
2026-04-26 12:16 38.26340 -121.92911 42 ft 6 kts 216°
2026-04-26 12:16 38.26197 -121.93100 39 ft 66 kts 228°
2026-04-26 12:16 38.25684 -121.93809 41 ft 151 kts 226°
2026-04-26 12:17 38.24844 -121.94940 586 ft 191 kts 225°
2026-04-26 12:17 38.23885 -121.96238 1643 ft 200 kts 228°
2026-04-26 12:17 38.22990 -121.97522 2879 ft 197 kts 229°
2026-04-26 12:17 38.22020 -121.98799 3635 ft 209 kts 216°
2026-04-26 12:18 38.20532 -121.99294 3920 ft 242 kts 176°
2026-04-26 12:18 38.18909 -121.98520 4604 ft 259 kts 148°
2026-04-26 12:18 38.17690 -121.96795 5415 ft 270 kts 119°
2026-04-26 12:18 38.17221 -121.94480 6281 ft 275 kts 94°
2026-04-26 12:19 38.17171 -121.92035 7085 ft 278 kts 92°
2026-04-26 12:19 38.17125 -121.89564 7843 ft 282 kts 92°
2026-04-26 12:19 38.17057 -121.87061 8632 ft 285 kts 92°
2026-04-26 12:19 38.16967 -121.84527 9401 ft 289 kts 92°
2026-04-26 12:20 38.16861 -121.81960 10153 ft 292 kts 92°
2026-04-26 12:20 38.16741 -121.79335 10608 ft 308 kts 93°
2026-04-26 12:20 38.16586 -121.76511 10788 ft 332 kts 94°
2026-04-26 12:20 38.16319 -121.73520 11031 ft 351 kts 98°
2026-04-26 12:21 38.15953 -121.70395 11584 ft 360 kts 98°
2026-04-26 12:21 38.15569 -121.67305 12270 ft 364 kts 98°
2026-04-26 12:21 38.15169 -121.64096 13002 ft 368 kts 98°
2026-04-26 12:21 38.14769 -121.60838 13723 ft 374 kts 98°
2026-04-26 12:22 38.14370 -121.57548 14383 ft 378 kts 98°
2026-04-26 12:22 38.13970 -121.54217 15088 ft 382 kts 98°
2026-04-26 12:22 38.13827 -121.53015 15354 ft 383 kts 98°
2026-04-26 12:22 38.13756 -121.52424 15485 ft 383 kts 98°
2026-04-26 12:23 38.13357 -121.49073 16213 ft 386 kts 98°
2026-04-26 12:23 38.12952 -121.45677 16922 ft 390 kts 98°
2026-04-26 12:23 38.12543 -121.42250 17596 ft 394 kts 97°
2026-04-26 12:23 38.12131 -121.38797 18268 ft 398 kts 97°
2026-04-26 12:24 38.11717 -121.35349 18845 ft 402 kts 97°
2026-04-26 12:24 38.11293 -121.31824 19416 ft 406 kts 97°
2026-04-26 12:24 38.10864 -121.28271 19979 ft 410 kts 98°
2026-04-26 12:25 38.09990 -121.21054 21112 ft 417 kts 98°
2026-04-26 12:25 38.09544 -121.17394 21667 ft 421 kts 98°
2026-04-26 12:25 38.09094 -121.13705 22203 ft 425 kts 98°
2026-04-26 12:25 38.08640 -121.09982 22726 ft 429 kts 98°
2026-04-26 12:26 38.08180 -121.06226 23237 ft 433 kts 98°
2026-04-26 12:26 38.07476 -121.02494 23690 ft 437 kts 109°
2026-04-26 12:26 38.06233 -120.98997 24142 ft 439 kts 120°
2026-04-26 12:26 38.04511 -120.95776 24583 ft 440 kts 130°
2026-04-26 12:27 38.02527 -120.92817 25069 ft 441 kts 132°
2026-04-26 12:27 38.00505 -120.89884 25498 ft 444 kts 132°
2026-04-26 12:27 37.98461 -120.86939 25895 ft 447 kts 132°
2026-04-26 12:27 37.96406 -120.83965 26273 ft 450 kts 132°
2026-04-26 12:28 37.94338 -120.80956 26685 ft 453 kts 132°
2026-04-26 12:28 37.92272 -120.77933 27085 ft 455 kts 132°
2026-04-26 12:28 37.90198 -120.74888 27458 ft 458 kts 131°
2026-04-26 12:28 37.88115 -120.71826 27825 ft 461 kts 131°
2026-04-26 12:29 37.86020 -120.68745 28193 ft 463 kts 131°
2026-04-26 12:29 37.83912 -120.65647 28556 ft 465 kts 132°
2026-04-26 12:29 37.79664 -120.59415 29247 ft 470 kts 132°
2026-04-26 12:30 37.77520 -120.56275 29579 ft 473 kts 132°
2026-04-26 12:30 37.75366 -120.53124 29893 ft 475 kts 132°
2026-04-26 12:30 37.73210 -120.49972 30179 ft 477 kts 132°
2026-04-26 12:31 37.68851 -120.43611 30726 ft 480 kts 132°
2026-04-26 12:31 37.66663 -120.40423 31099 ft 479 kts 132°
2026-04-26 12:31 37.64484 -120.37250 31482 ft 478 kts 132°
2026-04-26 12:31 37.62307 -120.34084 31787 ft 479 kts 132°
2026-04-26 12:32 37.60119 -120.30906 32055 ft 480 kts 132°
2026-04-26 12:32 37.57929 -120.27728 32343 ft 481 kts 132°
2026-04-26 12:32 37.53551 -120.21382 33071 ft 478 kts 133°
2026-04-26 12:33 37.51365 -120.18219 33402 ft 478 kts 133°
2026-04-26 12:33 37.49181 -120.15061 33691 ft 479 kts 133°
2026-04-26 12:33 37.46992 -120.11900 33963 ft 479 kts 133°
2026-04-26 12:33 37.44795 -120.08730 34169 ft 481 kts 133°
2026-04-26 12:34 37.42594 -120.05558 34361 ft 482 kts 133°
2026-04-26 12:34 37.40392 -120.02386 34640 ft 481 kts 133°
2026-04-26 12:34 37.38188 -119.99215 34915 ft 481 kts 133°
2026-04-26 12:34 37.35987 -119.96052 35150 ft 481 kts 133°
2026-04-26 12:35 37.33816 -119.92934 35360 ft 481 kts 133°
2026-04-26 12:35 37.31577 -119.89722 35577 ft 482 kts 133°
2026-04-26 12:35 37.29368 -119.86557 35785 ft 482 kts 133°
2026-04-26 12:35 37.27185 -119.83431 36026 ft 482 kts 133°
2026-04-26 12:36 37.24975 -119.80271 36275 ft 482 kts 134°
2026-04-26 12:36 37.22733 -119.77067 36489 ft 482 kts 134°
2026-04-26 12:36 37.20548 -119.73947 36719 ft 482 kts 134°
2026-04-26 12:36 37.18337 -119.70794 36939 ft 482 kts 134°
2026-04-26 12:37 37.16123 -119.67639 37139 ft 482 kts 134°
2026-04-26 12:37 37.13907 -119.64483 37329 ft 482 kts 134°
2026-04-26 12:37 37.11817 -119.61189 37532 ft 485 kts 126°
2026-04-26 12:37 37.10135 -119.57514 37751 ft 488 kts 117°
2026-04-26 12:38 37.08894 -119.53552 37941 ft 490 kts 108°
2026-04-26 12:38 37.07958 -119.49451 38164 ft 490 kts 107°
2026-04-26 12:38 37.07061 -119.45334 38337 ft 490 kts 107°
2026-04-26 12:38 37.06171 -119.41213 38512 ft 491 kts 107°
2026-04-26 12:39 37.05271 -119.37097 38661 ft 491 kts 107°
2026-04-26 12:39 37.04353 -119.32968 38769 ft 492 kts 107°
2026-04-26 12:39 37.03423 -119.28845 38873 ft 493 kts 108°
2026-04-26 12:40 37.01528 -119.20568 38930 ft 496 kts 108°
2026-04-26 12:40 36.99621 -119.12309 38917 ft 493 kts 108°
2026-04-26 12:41 36.97717 -119.04081 38931 ft 491 kts 108°
2026-04-26 12:41 36.95819 -118.95901 38915 ft 489 kts 108°
2026-04-26 12:42 36.93917 -118.87733 38899 ft 489 kts 108°
2026-04-26 12:42 36.92014 -118.79586 38898 ft 488 kts 108°
2026-04-26 12:43 36.90104 -118.71439 38868 ft 489 kts 108°
2026-04-26 12:43 36.88187 -118.63287 38842 ft 490 kts 109°
2026-04-26 12:44 36.86257 -118.55109 38840 ft 492 kts 109°
2026-04-26 12:44 36.84321 -118.46932 38787 ft 493 kts 109°
2026-04-26 12:45 36.82375 -118.38742 38744 ft 495 kts 109°
2026-04-26 12:45 36.80407 -118.30490 38713 ft 496 kts 109°
2026-04-26 12:46 36.78433 -118.22236 38724 ft 497 kts 109°
2026-04-26 12:46 36.76453 -118.13985 38695 ft 497 kts 109°
2026-04-26 12:47 36.74465 -118.05729 38670 ft 497 kts 109°
2026-04-26 12:47 36.72473 -117.97489 38696 ft 497 kts 109°
2026-04-26 12:48 36.70468 -117.89221 38687 ft 497 kts 109°
2026-04-26 12:48 36.68463 -117.80980 38690 ft 497 kts 109°
2026-04-26 12:49 36.66451 -117.72737 38687 ft 497 kts 110°
2026-04-26 12:49 36.64436 -117.64506 38674 ft 496 kts 110°
2026-04-26 12:50 36.62418 -117.56295 38687 ft 496 kts 110°
2026-04-26 12:50 36.60395 -117.48091 38697 ft 496 kts 110°
2026-04-26 12:51 36.58367 -117.39895 38689 ft 495 kts 110°
2026-04-26 12:51 36.56338 -117.31719 38692 ft 495 kts 110°
2026-04-26 12:52 36.54302 -117.23544 38693 ft 494 kts 110°
2026-04-26 12:52 36.52262 -117.15378 38684 ft 495 kts 110°
2026-04-26 12:53 36.50214 -117.07207 38682 ft 495 kts 110°
2026-04-26 12:53 36.48161 -116.99044 38669 ft 496 kts 110°
2026-04-26 12:54 36.46111 -116.90916 38697 ft 497 kts 110°
2026-04-26 12:54 36.44373 -116.84046 38691 ft 498 kts 110°
2026-04-26 12:55 36.41947 -116.74490 38676 ft 500 kts 111°
2026-04-26 12:55 36.40188 -116.67584 38685 ft 501 kts 111°
2026-04-26 12:56 36.38091 -116.59371 38691 ft 503 kts 111°
2026-04-26 12:56 36.35972 -116.51103 38686 ft 503 kts 111°
2026-04-26 12:57 36.33845 -116.42828 38684 ft 503 kts 111°
2026-04-26 12:57 36.31716 -116.34568 38688 ft 502 kts 111°
2026-04-26 12:58 36.28520 -116.22226 38700 ft 500 kts 111°
2026-04-26 12:58 36.26387 -116.14024 38707 ft 499 kts 112°
2026-04-26 12:59 36.24255 -116.05852 38730 ft 498 kts 112°
2026-04-26 12:59 36.22120 -115.97690 38755 ft 498 kts 112°
2026-04-26 13:00 36.19992 -115.89527 38749 ft 499 kts 110°
2026-04-26 13:00 36.18274 -115.81165 38770 ft 503 kts 107°
2026-04-26 13:01 36.16706 -115.72721 38791 ft 504 kts 107°
2026-04-26 13:01 36.15100 -115.64254 38793 ft 506 kts 107°
2026-04-26 13:02 36.13446 -115.55766 38788 ft 508 kts 108°
2026-04-26 13:02 36.11768 -115.47253 38795 ft 511 kts 108°
2026-04-26 13:03 36.10076 -115.38698 38786 ft 513 kts 108°
2026-04-26 13:03 36.08377 -115.30126 38749 ft 514 kts 108°
2026-04-26 13:04 36.06671 -115.21550 38770 ft 514 kts 108°
2026-04-26 13:04 36.04956 -115.12969 38776 ft 514 kts 108°
2026-04-26 13:05 36.03234 -115.04389 38802 ft 514 kts 108°
2026-04-26 13:05 36.01513 -114.95846 38752 ft 509 kts 107°
2026-04-26 13:06 35.99827 -114.87499 38749 ft 500 kts 108°
2026-04-26 13:06 35.97818 -114.79325 38740 ft 497 kts 113°
2026-04-26 13:07 35.95529 -114.71287 38746 ft 496 kts 114°
2026-04-26 13:07 35.93236 -114.63244 38734 ft 498 kts 114°
2026-04-26 13:08 35.90969 -114.55136 38705 ft 501 kts 113°
2026-04-26 13:08 35.88711 -114.47002 38700 ft 503 kts 113°
2026-04-26 13:09 35.86432 -114.38814 38690 ft 506 kts 113°
2026-04-26 13:09 35.84137 -114.30599 38683 ft 508 kts 114°
2026-04-26 13:10 35.81827 -114.22359 38691 ft 509 kts 114°
2026-04-26 13:10 35.79511 -114.14122 38705 ft 508 kts 114°
2026-04-26 13:11 35.77194 -114.05911 38712 ft 509 kts 114°
2026-04-26 13:11 35.74857 -113.97655 38709 ft 509 kts 114°
2026-04-26 13:12 35.72521 -113.89425 38677 ft 509 kts 114°
2026-04-26 13:12 35.70187 -113.81220 38687 ft 507 kts 115°
2026-04-26 13:13 35.67854 -113.73050 38710 ft 505 kts 115°
2026-04-26 13:13 35.65520 -113.64904 38704 ft 504 kts 115°
2026-04-26 13:14 35.63246 -113.56831 38707 ft 505 kts 111°
2026-04-26 13:14 35.62244 -113.48217 38733 ft 515 kts 95°
2026-04-26 13:15 35.62193 -113.39406 38725 ft 515 kts 93°
2026-04-26 13:15 35.62159 -113.30592 38728 ft 516 kts 94°
2026-04-26 13:16 35.62058 -113.21777 38728 ft 518 kts 95°
2026-04-26 13:16 35.61918 -113.12906 38738 ft 519 kts 95°
2026-04-26 13:17 35.61689 -112.99544 38740 ft 523 kts 95°
2026-04-26 13:18 35.61451 -112.86112 38753 ft 526 kts 95°
2026-04-26 13:19 35.61198 -112.72615 38744 ft 528 kts 95°
2026-04-26 13:19 35.61020 -112.63586 38751 ft 528 kts 95°
2026-04-26 13:20 35.60836 -112.54562 38745 ft 528 kts 95°
2026-04-26 13:20 35.60645 -112.45553 38746 ft 528 kts 95°
2026-04-26 13:21 35.60449 -112.36597 38767 ft 527 kts 95°
2026-04-26 13:21 35.60244 -112.27616 38784 ft 526 kts 95°
2026-04-26 13:22 35.60034 -112.18653 38760 ft 525 kts 96°
2026-04-26 13:22 35.59817 -112.09705 38771 ft 523 kts 96°
2026-04-26 13:23 35.59593 -112.00768 38765 ft 523 kts 96°
2026-04-26 13:23 35.59007 -111.91913 38744 ft 515 kts 108°
2026-04-26 13:24 35.56693 -111.83757 38752 ft 499 kts 126°
2026-04-26 13:24 35.53202 -111.76470 38743 ft 495 kts 129°
2026-04-26 13:25 35.49647 -111.69203 38751 ft 497 kts 129°
2026-04-26 13:25 35.46121 -111.61898 38709 ft 498 kts 129°
2026-04-26 13:26 35.42609 -111.54569 38750 ft 499 kts 129°
2026-04-26 13:26 35.39091 -111.47235 38754 ft 499 kts 129°
2026-04-26 13:27 35.35581 -111.39940 38738 ft 501 kts 129°
2026-04-26 13:27 35.32036 -111.32589 38750 ft 502 kts 129°
2026-04-26 13:28 35.28474 -111.25226 38707 ft 504 kts 128°
2026-04-26 13:28 35.24892 -111.17831 38723 ft 506 kts 128°
2026-04-26 13:29 35.21290 -111.10411 38752 ft 509 kts 129°
2026-04-26 13:29 35.17664 -111.02958 38742 ft 511 kts 129°
2026-04-26 13:30 35.14025 -110.95493 38808 ft 512 kts 129°
2026-04-26 13:30 35.10379 -110.88029 38836 ft 511 kts 129°
2026-04-26 13:31 35.06732 -110.80580 38888 ft 512 kts 129°
2026-04-26 13:31 35.03454 -110.72759 38885 ft 520 kts 123°
2026-04-26 13:32 35.00499 -110.64690 38879 ft 521 kts 122°
2026-04-26 13:32 34.99027 -110.60650 38729 ft 521 kts 122°
2026-04-26 13:32 34.97542 -110.56629 38738 ft 520 kts 122°
2026-04-26 13:33 34.94531 -110.48629 38704 ft 518 kts 123°
2026-04-26 13:33 34.91498 -110.40674 38728 ft 518 kts 123°
2026-04-26 13:34 34.88457 -110.32728 38736 ft 517 kts 123°
2026-04-26 13:34 34.85414 -110.24785 38732 ft 518 kts 123°
2026-04-26 13:35 34.82389 -110.16899 38729 ft 518 kts 123°
2026-04-26 13:35 34.79334 -110.08955 38680 ft 518 kts 123°
2026-04-26 13:36 34.76281 -110.01032 38731 ft 517 kts 123°
2026-04-26 13:36 34.73217 -109.93104 38725 ft 519 kts 123°
2026-04-26 13:37 34.70141 -109.85164 38727 ft 520 kts 123°
2026-04-26 13:37 34.67053 -109.77212 38721 ft 521 kts 124°
2026-04-26 13:38 34.63957 -109.69256 38718 ft 522 kts 124°
2026-04-26 13:38 34.60851 -109.61295 38760 ft 521 kts 123°
2026-04-26 13:39 34.57748 -109.53357 38865 ft 521 kts 123°
2026-04-26 13:39 34.54632 -109.45412 38932 ft 521 kts 123°
2026-04-26 13:40 34.51511 -109.37473 38912 ft 522 kts 124°
2026-04-26 13:40 34.48384 -109.29533 38909 ft 522 kts 124°
2026-04-26 13:41 34.45254 -109.21607 38729 ft 521 kts 124°
2026-04-26 13:41 34.42053 -109.13757 38722 ft 514 kts 130°
2026-04-26 13:42 34.38031 -109.06781 38739 ft 503 kts 137°
2026-04-26 13:42 34.33865 -109.00004 38734 ft 501 kts 137°
2026-04-26 13:43 34.29729 -108.93220 38710 ft 502 kts 136°
2026-04-26 13:43 34.25643 -108.86445 38656 ft 501 kts 136°
2026-04-26 13:44 34.21550 -108.79639 38711 ft 501 kts 136°
2026-04-26 13:44 34.17446 -108.72828 38721 ft 501 kts 136°
2026-04-26 13:45 34.13331 -108.66018 38724 ft 502 kts 136°
2026-04-26 13:45 34.09208 -108.59211 38712 ft 503 kts 136°
2026-04-26 13:46 34.05073 -108.52394 38671 ft 504 kts 135°
2026-04-26 13:46 34.01606 -108.46687 38723 ft 505 kts 135°
2026-04-26 13:47 33.97469 -108.39893 38729 ft 507 kts 136°
2026-04-26 13:47 33.93284 -108.33034 38731 ft 509 kts 136°
2026-04-26 13:48 33.89083 -108.26157 38718 ft 510 kts 136°
2026-04-26 13:48 33.84870 -108.19272 38689 ft 510 kts 135°
2026-04-26 13:49 33.80665 -108.12412 38723 ft 509 kts 135°
2026-04-26 13:49 33.76460 -108.05569 38746 ft 509 kts 135°
2026-04-26 13:50 33.72249 -107.98730 38741 ft 509 kts 135°
2026-04-26 13:50 33.68038 -107.91902 38749 ft 509 kts 135°
2026-04-26 13:51 33.63826 -107.85087 38734 ft 508 kts 135°
2026-04-26 13:51 33.59619 -107.78291 38733 ft 508 kts 135°
2026-04-26 13:52 33.55407 -107.71498 38732 ft 507 kts 136°
2026-04-26 13:52 33.51201 -107.64730 38741 ft 506 kts 136°
2026-04-26 13:53 33.46995 -107.57976 38731 ft 505 kts 136°
2026-04-26 13:53 33.42801 -107.51250 38785 ft 503 kts 135°
2026-04-26 13:54 33.38605 -107.44536 38834 ft 503 kts 136°
2026-04-26 13:54 33.34406 -107.37832 38919 ft 504 kts 136°
2026-04-26 13:55 33.28950 -107.28704 38917 ft 517 kts 127°
2026-04-26 13:55 33.25935 -107.19165 38893 ft 532 kts 111°
2026-04-26 13:56 33.24965 -107.14958 38905 ft 532 kts 111°
2026-04-26 13:56 33.23021 -107.06443 38856 ft 532 kts 111°
2026-04-26 13:57 33.21007 -106.97950 38814 ft 531 kts 112°
2026-04-26 13:57 33.18946 -106.89497 38774 ft 530 kts 112°
2026-04-26 13:58 33.16870 -106.81057 38747 ft 530 kts 112°
2026-04-26 13:58 33.14791 -106.72613 38762 ft 530 kts 112°
2026-04-26 13:59 33.12708 -106.64163 38761 ft 531 kts 112°
2026-04-26 13:59 33.10623 -106.55726 38764 ft 530 kts 112°
2026-04-26 14:00 33.06448 -106.38917 38765 ft 528 kts 113°
2026-04-26 14:01 33.04352 -106.30522 38870 ft 529 kts 113°
2026-04-26 14:01 33.02247 -106.22120 38909 ft 529 kts 113°
2026-04-26 14:02 33.00135 -106.13714 38943 ft 530 kts 113°
2026-04-26 14:02 32.98013 -106.05295 38953 ft 531 kts 113°
2026-04-26 14:03 32.95884 -105.96871 38912 ft 532 kts 113°
2026-04-26 14:03 32.94816 -105.92654 38797 ft 531 kts 113°
2026-04-26 14:03 32.93748 -105.88446 38813 ft 532 kts 113°
2026-04-26 14:04 32.91603 -105.80015 38804 ft 532 kts 114°
2026-04-26 14:04 32.89452 -105.71589 38802 ft 533 kts 114°
2026-04-26 14:05 32.87309 -105.63215 38742 ft 532 kts 113°
2026-04-26 14:05 32.84803 -105.54963 38800 ft 521 kts 122°
2026-04-26 14:06 32.81638 -105.47303 38789 ft 519 kts 124°
2026-04-26 14:06 32.78389 -105.39651 38787 ft 518 kts 124°
2026-04-26 14:07 32.75193 -105.31979 38777 ft 518 kts 124°
2026-04-26 14:07 32.72027 -105.24280 38764 ft 518 kts 123°
2026-04-26 14:08 32.68871 -105.16594 38778 ft 518 kts 123°
2026-04-26 14:08 32.65701 -105.08901 38780 ft 519 kts 123°
2026-04-26 14:09 32.62518 -105.01203 38769 ft 521 kts 123°
2026-04-26 14:09 32.59317 -104.93478 38770 ft 522 kts 123°
2026-04-26 14:10 32.56100 -104.85731 38762 ft 525 kts 124°
2026-04-26 14:10 32.52865 -104.77957 38766 ft 526 kts 124°
2026-04-26 14:11 32.47990 -104.66271 38764 ft 528 kts 124°
2026-04-26 14:11 32.44730 -104.58478 38753 ft 528 kts 124°
2026-04-26 14:12 32.41465 -104.50690 38764 ft 528 kts 124°
2026-04-26 14:12 32.38198 -104.42916 38742 ft 527 kts 124°
2026-04-26 14:13 32.33296 -104.31281 38879 ft 526 kts 124°
2026-04-26 14:14 32.30038 -104.23569 38928 ft 523 kts 124°
2026-04-26 14:14 32.26781 -104.15880 38920 ft 524 kts 125°
2026-04-26 14:15 32.23505 -104.08166 38874 ft 525 kts 125°
2026-04-26 14:15 32.21866 -104.04311 38747 ft 526 kts 125°
2026-04-26 14:15 32.20221 -104.00446 38747 ft 527 kts 125°
2026-04-26 14:16 32.16923 -103.92708 38746 ft 528 kts 125°
2026-04-26 14:16 32.13609 -103.84949 38741 ft 530 kts 125°
2026-04-26 14:17 32.10281 -103.77174 38731 ft 531 kts 125°
2026-04-26 14:17 32.06946 -103.69374 38740 ft 533 kts 124°
2026-04-26 14:18 32.03596 -103.61571 38748 ft 534 kts 125°
2026-04-26 14:18 32.00220 -103.53774 38746 ft 535 kts 125°
2026-04-26 14:19 31.96845 -103.45960 38731 ft 535 kts 125°
2026-04-26 14:19 31.93469 -103.38149 38738 ft 535 kts 125°
2026-04-26 14:20 31.90112 -103.30408 38717 ft 534 kts 125°
2026-04-26 14:20 31.86787 -103.22610 38736 ft 535 kts 122°
2026-04-26 14:21 31.83858 -103.14539 38746 ft 537 kts 119°
2026-04-26 14:21 31.81056 -103.06396 38738 ft 537 kts 119°
2026-04-26 14:22 31.78219 -102.98292 38746 ft 535 kts 120°
2026-04-26 14:22 31.75344 -102.90232 38755 ft 535 kts 120°
2026-04-26 14:23 31.72452 -102.82184 38746 ft 535 kts 120°
2026-04-26 14:23 31.69559 -102.74146 38710 ft 534 kts 119°
2026-04-26 14:24 31.66670 -102.66126 38740 ft 534 kts 119°
2026-04-26 14:24 31.63790 -102.58147 38750 ft 534 kts 120°
2026-04-26 14:25 31.60886 -102.50122 38756 ft 535 kts 120°
2026-04-26 14:25 31.57972 -102.42089 38753 ft 536 kts 120°
2026-04-26 14:26 31.55048 -102.34047 38759 ft 536 kts 119°
2026-04-26 14:26 31.52117 -102.26004 38763 ft 537 kts 119°
2026-04-26 14:27 31.49174 -102.17948 38757 ft 538 kts 119°
2026-04-26 14:27 31.46229 -102.09905 38764 ft 537 kts 119°
2026-04-26 14:28 31.43277 -102.01861 38758 ft 537 kts 119°
2026-04-26 14:28 31.40323 -101.93824 38770 ft 537 kts 119°
2026-04-26 14:29 31.37366 -101.85797 38769 ft 537 kts 119°
2026-04-26 14:29 31.34406 -101.77782 38768 ft 537 kts 119°
2026-04-26 14:30 31.31438 -101.69764 38774 ft 536 kts 119°
2026-04-26 14:30 31.28471 -101.61768 38768 ft 536 kts 119°
2026-04-26 14:31 31.25502 -101.53786 38773 ft 535 kts 119°
2026-04-26 14:31 31.22533 -101.45821 38780 ft 534 kts 119°
2026-04-26 14:32 31.19563 -101.37874 38780 ft 534 kts 119°
2026-04-26 14:32 31.16613 -101.29994 38777 ft 533 kts 119°
2026-04-26 14:33 31.13637 -101.22070 38794 ft 532 kts 118°
2026-04-26 14:33 31.10659 -101.14161 38794 ft 532 kts 119°
2026-04-26 14:34 31.07678 -101.06261 38790 ft 532 kts 119°
2026-04-26 14:34 31.04694 -100.98371 38778 ft 532 kts 118°
2026-04-26 14:35 31.01705 -100.90488 38799 ft 531 kts 118°
2026-04-26 14:35 30.99220 -100.83946 38803 ft 531 kts 118°
2026-04-26 14:36 30.96226 -100.76079 38805 ft 531 kts 118°
2026-04-26 14:36 30.93223 -100.68207 38814 ft 532 kts 119°
2026-04-26 14:36 30.91717 -100.64268 38648 ft 536 kts 118°
2026-04-26 14:37 30.90202 -100.60287 38407 ft 537 kts 118°
2026-04-26 14:37 30.88696 -100.56333 38125 ft 534 kts 118°
2026-04-26 14:37 30.87190 -100.52394 37861 ft 530 kts 118°
2026-04-26 14:37 30.85688 -100.48479 37596 ft 529 kts 118°
2026-04-26 14:38 30.84188 -100.44581 37327 ft 527 kts 118°
2026-04-26 14:38 30.82691 -100.40694 37066 ft 526 kts 118°
2026-04-26 14:38 30.81196 -100.36817 36783 ft 525 kts 118°
2026-04-26 14:38 30.79701 -100.32955 36522 ft 524 kts 118°
2026-04-26 14:39 30.78209 -100.29101 36072 ft 522 kts 118°
2026-04-26 14:39 30.76705 -100.25220 35476 ft 533 kts 118°
2026-04-26 14:39 30.75163 -100.21246 34819 ft 543 kts 118°
2026-04-26 14:39 30.73607 -100.17227 34345 ft 545 kts 118°
2026-04-26 14:40 30.72066 -100.13241 34107 ft 536 kts 118°
2026-04-26 14:40 30.70551 -100.09318 33471 ft 527 kts 118°
2026-04-26 14:40 30.69059 -100.05466 32624 ft 520 kts 118°
2026-04-26 14:40 30.67577 -100.01655 31753 ft 515 kts 118°
2026-04-26 14:41 30.66102 -99.97872 30920 ft 513 kts 118°
2026-04-26 14:41 30.64636 -99.94114 30110 ft 509 kts 118°
2026-04-26 14:41 30.63178 -99.90379 29212 ft 507 kts 118°
2026-04-26 14:41 30.61732 -99.86676 28645 ft 495 kts 118°
2026-04-26 14:42 30.60255 -99.83116 28105 ft 488 kts 126°
2026-04-26 14:42 30.58137 -99.80076 27562 ft 483 kts 143°
2026-04-26 14:42 30.55520 -99.77641 27034 ft 484 kts 148°
2026-04-26 14:42 30.52817 -99.75276 26442 ft 490 kts 149°
2026-04-26 14:43 30.50074 -99.72894 25849 ft 496 kts 148°
2026-04-26 14:43 30.47305 -99.70473 25256 ft 501 kts 148°
2026-04-26 14:43 30.44566 -99.68050 24555 ft 488 kts 148°
2026-04-26 14:43 30.41915 -99.65678 23864 ft 473 kts 147°
2026-04-26 14:44 30.39354 -99.63376 23120 ft 459 kts 147°
2026-04-26 14:44 30.36851 -99.61128 22708 ft 449 kts 147°
2026-04-26 14:44 30.34423 -99.58949 22170 ft 440 kts 147°
2026-04-26 14:44 30.31964 -99.56757 21631 ft 453 kts 147°
2026-04-26 14:45 30.29435 -99.54510 21051 ft 464 kts 147°
2026-04-26 14:45 30.27725 -99.52990 20660 ft 471 kts 147°
2026-04-26 14:45 30.24216 -99.49864 19929 ft 473 kts 146°
2026-04-26 14:45 30.21708 -99.47614 19742 ft 441 kts 146°
2026-04-26 14:46 30.19347 -99.45496 19306 ft 421 kts 146°
2026-04-26 14:46 30.17059 -99.43454 18697 ft 411 kts 146°
2026-04-26 14:46 30.14809 -99.41454 18007 ft 405 kts 146°
2026-04-26 14:46 30.12584 -99.39481 17246 ft 401 kts 146°
2026-04-26 14:47 30.10407 -99.37549 16507 ft 398 kts 146°
2026-04-26 14:47 30.08228 -99.35616 15823 ft 395 kts 146°
2026-04-26 14:47 30.06060 -99.33692 15112 ft 391 kts 146°
2026-04-26 14:47 30.03909 -99.31785 14426 ft 388 kts 146°
2026-04-26 14:48 30.01780 -99.29896 13747 ft 384 kts 146°
2026-04-26 14:48 29.99696 -99.28048 13394 ft 369 kts 146°
2026-04-26 14:48 29.97713 -99.26288 13128 ft 350 kts 146°
2026-04-26 14:48 29.95828 -99.24617 12862 ft 334 kts 146°
2026-04-26 14:49 29.94024 -99.23019 12602 ft 320 kts 146°
2026-04-26 14:49 29.92360 -99.21365 12240 ft 316 kts 132°
2026-04-26 14:49 29.91265 -99.19169 11865 ft 317 kts 116°
2026-04-26 14:49 29.90366 -99.16850 11468 ft 317 kts 115°
2026-04-26 14:50 29.89485 -99.14524 11053 ft 315 kts 115°
2026-04-26 14:50 29.88617 -99.12248 10813 ft 304 kts 115°
2026-04-26 14:50 29.87771 -99.10051 10634 ft 299 kts 116°
2026-04-26 14:50 29.86912 -99.07841 10440 ft 303 kts 115°
2026-04-26 14:51 29.86042 -99.05616 10367 ft 308 kts 115°
2026-04-26 14:51 29.85161 -99.03366 10251 ft 309 kts 115°
2026-04-26 14:51 29.84277 -99.01111 10121 ft 307 kts 115°
2026-04-26 14:51 29.83394 -98.98877 9978 ft 306 kts 117°
2026-04-26 14:52 29.82132 -98.96937 9797 ft 303 kts 137°
2026-04-26 14:52 29.80639 -98.95224 9595 ft 303 kts 137°
2026-04-26 14:52 29.79132 -98.93543 9399 ft 299 kts 138°
2026-04-26 14:52 29.77645 -98.91910 9208 ft 292 kts 138°
2026-04-26 14:53 29.76182 -98.90307 9034 ft 290 kts 138°
2026-04-26 14:53 29.74724 -98.88697 8859 ft 291 kts 138°
2026-04-26 14:53 29.73269 -98.87080 8684 ft 291 kts 137°
2026-04-26 14:53 29.71823 -98.85467 8501 ft 290 kts 138°
2026-04-26 14:54 29.70370 -98.83850 8331 ft 290 kts 138°
2026-04-26 14:54 29.68919 -98.82240 8163 ft 289 kts 138°
2026-04-26 14:54 29.67468 -98.80641 7998 ft 289 kts 138°
2026-04-26 14:54 29.66033 -98.79028 7827 ft 288 kts 134°
2026-04-26 14:55 29.64808 -98.77210 7592 ft 287 kts 125°
2026-04-26 14:55 29.63719 -98.75294 7361 ft 286 kts 124°
2026-04-26 14:55 29.62651 -98.73361 7133 ft 287 kts 124°
2026-04-26 14:55 29.61578 -98.71433 6907 ft 285 kts 124°
2026-04-26 14:56 29.60505 -98.69526 6683 ft 283 kts 124°
2026-04-26 14:56 29.59435 -98.67645 6458 ft 280 kts 124°
2026-04-26 14:56 29.58368 -98.65785 6231 ft 278 kts 124°
2026-04-26 14:56 29.57303 -98.63938 5996 ft 276 kts 124°
2026-04-26 14:57 29.56256 -98.62128 5754 ft 275 kts 125°
2026-04-26 14:57 29.55186 -98.60284 5518 ft 274 kts 125°
2026-04-26 14:57 29.54145 -98.58495 5306 ft 272 kts 125°
2026-04-26 14:57 29.53094 -98.56690 5026 ft 272 kts 125°
2026-04-26 14:58 29.52041 -98.54887 4782 ft 271 kts 126°
2026-04-26 14:58 29.50994 -98.53092 4533 ft 270 kts 126°
2026-04-26 14:58 29.49951 -98.51305 4290 ft 269 kts 126°
2026-04-26 14:58 29.48911 -98.49526 4056 ft 268 kts 126°
2026-04-26 14:59 29.47878 -98.47757 3904 ft 260 kts 126°
2026-04-26 14:59 29.46906 -98.46088 3830 ft 246 kts 126°
2026-04-26 14:59 29.45967 -98.44482 3769 ft 238 kts 126°
2026-04-26 14:59 29.45361 -98.43447 3734 ft 233 kts 126°
2026-04-26 15:00 29.44176 -98.41424 3685 ft 224 kts 126°
2026-04-26 15:00 29.43318 -98.39960 3655 ft 219 kts 126°
2026-04-26 15:00 29.42472 -98.38515 3615 ft 217 kts 126°
2026-04-26 15:00 29.41635 -98.37089 3584 ft 214 kts 126°
2026-04-26 15:01 29.40810 -98.35685 3552 ft 211 kts 126°
2026-04-26 15:01 29.39997 -98.34300 3518 ft 208 kts 126°
2026-04-26 15:01 29.39197 -98.32937 3502 ft 204 kts 126°
2026-04-26 15:01 29.38415 -98.31606 3490 ft 199 kts 126°
2026-04-26 15:02 29.37648 -98.30300 3481 ft 195 kts 126°
2026-04-26 15:02 29.36895 -98.29019 3457 ft 192 kts 126°
2026-04-26 15:02 29.36151 -98.27754 3436 ft 190 kts 127°
2026-04-26 15:02 29.35419 -98.26509 3402 ft 187 kts 126°
2026-04-26 15:03 29.34698 -98.25282 3373 ft 184 kts 127°
2026-04-26 15:03 29.33991 -98.24080 3341 ft 180 kts 127°
2026-04-26 15:03 29.33297 -98.22899 3304 ft 177 kts 128°
2026-04-26 15:03 29.32608 -98.21729 3117 ft 174 kts 128°
2026-04-26 15:04 29.31943 -98.20598 3079 ft 170 kts 128°
2026-04-26 15:04 29.31283 -98.19481 3076 ft 169 kts 127°
2026-04-26 15:04 29.30619 -98.18355 3077 ft 172 kts 127°
2026-04-26 15:04 29.30140 -98.17106 3046 ft 178 kts 94°
2026-04-26 15:05 29.30568 -98.15788 3061 ft 181 kts 45°
2026-04-26 15:05 29.31268 -98.15293 3062 ft 180 kts 13°
2026-04-26 15:05 29.32834 -98.15679 3096 ft 178 kts 326°
2026-04-26 15:05 29.33917 -98.16402 3083 ft 180 kts 326°
2026-04-26 15:06 29.34994 -98.17119 3068 ft 178 kts 327°
2026-04-26 15:06 29.36059 -98.17826 3076 ft 173 kts 326°
2026-04-26 15:06 29.37083 -98.18503 3077 ft 169 kts 326°
2026-04-26 15:06 29.38105 -98.19180 3090 ft 169 kts 327°
2026-04-26 15:07 29.40148 -98.20529 3084 ft 169 kts 326°
2026-04-26 15:07 29.41146 -98.21186 3052 ft 163 kts 327°
2026-04-26 15:07 29.42118 -98.21824 2850 ft 157 kts 326°
2026-04-26 15:08 29.43042 -98.22431 2629 ft 150 kts 326°
2026-04-26 15:08 29.43954 -98.23032 2477 ft 155 kts 327°
2026-04-26 15:08 29.44889 -98.23650 2425 ft 154 kts 326°
2026-04-26 15:08 29.45801 -98.24254 2401 ft 150 kts 326°
2026-04-26 15:09 29.46712 -98.24879 2295 ft 156 kts 324°
2026-04-26 15:09 29.47630 -98.25538 1991 ft 154 kts 326°
2026-04-26 15:09 29.48579 -98.26137 1616 ft 156 kts 329°
2026-04-26 15:09 29.49545 -98.26744 1216 ft 160 kts 329°
2026-04-26 15:10 29.50492 -98.27355 937 ft 151 kts 331°
2026-04-26 15:10 29.51073 -98.27735 813 ft 139 kts 331°
2026-04-26 15:10 29.52093 -98.28396 737 ft 104 kts 331°
2026-04-26 15:10 29.52522 -98.28679 736 ft 31 kts 329°
2026-04-26 15:11 29.52622 -98.28724 734 ft 15 kts
2026-04-26 15:11 29.52661 -98.28687 734 ft 0 kts 55°
2026-04-26 15:11 29.52663 -98.28684 734 ft 0 kts 58°
2026-04-26 15:11 29.52664 -98.28680 734 ft 1 kts 59°
2026-04-26 15:12 29.52686 -98.28637 736 ft 9 kts 60°
2026-04-26 15:12 29.52714 -98.28580 738 ft 7 kts 60°
2026-04-26 15:12 29.52724 -98.28559 739 ft 0 kts 60°